FW7122 Weather Reports


Display with metric or nautical units.
time (UTC)temp
F
wind
direction
speed
MPH
gust
MPH
rain 1hr
in
rain 24hr
in
rain mn
in
humidity
%
barometer
mb
20260506112330 47 27 0.0 0.0 0.05 0.00 0.46 97 1009.0
20260506111822 46 27 0.0 0.0 0.05 0.00 0.46 97 1008.6
20260506111314 46 27 0.0 0.0 0.05 0.00 0.45 97 1008.5
20260506110811 46 27 0.0 0.0 0.05 0.00 0.45 97 1008.6
20260506110324 46 27 0.0 0.0 0.06 0.00 0.45 97 1008.6
20260506105836 46 27 0.0 0.0 0.05 0.00 0.44 97 1008.6
20260506105327 46 27 0.0 0.0 0.06 0.00 0.44 97 1008.5
20260506104819 46 27 0.0 0.0 0.05 0.00 0.43 97 1007.9
20260506104311 46 27 0.0 0.0 0.06 0.00 0.43 97 1008.1
20260506103823 46 27 0.0 0.0 0.06 0.00 0.42 97 1008.2
20260506103315 46 27 0.0 0.0 0.06 0.00 0.42 97 1007.9
20260506102848 46 27 0.0 0.0 0.06 0.00 0.42 97 1007.8
20260506102319 46 27 0.0 0.0 0.06 0.00 0.41 97 1008.1
20260506101815 46 26 0.0 0.0 0.07 0.00 0.41 97 1008.5
20260506101326 46 26 0.0 0.0 0.06 0.00 0.40 97 1008.6
20260506100819 46 26 0.0 0.0 0.07 0.00 0.40 97 1008.4
20260506100311 46 26 0.0 0.0 0.07 0.00 0.39 97 1008.4
20260506095823 46 26 0.0 0.0 0.07 0.00 0.39 97 1008.0
20260506095315 46 26 0.0 0.0 0.07 0.00 0.38 97 1007.6
20260506094827 46 26 0.0 0.0 0.07 0.00 0.38 97 1007.6
20260506094320 46 26 0.0 0.0 0.07 0.00 0.37 97 1007.6
20260506093836 46 26 0.0 0.0 0.07 0.00 0.36 97 1007.6
20260506093327 46 26 0.0 0.0 0.07 0.00 0.36 97 1007.7
20260506092820 46 26 0.0 0.0 0.08 0.00 0.36 97 1007.8
20260506092311 46 26 0.0 0.0 0.07 0.00 0.35 97 1008.1
20260506091824 46 26 0.0 0.0 0.06 0.00 0.34 97 1008.2
20260506091316 46 26 0.0 0.0 0.07 0.00 0.34 97 1008.3
20260506090828 46 26 0.0 0.0 0.07 0.00 0.33 97 1008.5
20260506090322 46 26 0.0 0.0 0.06 0.00 0.32 97 1008.6
20260506085817 47 26 0.0 0.0 0.07 0.00 0.32 97 1008.6
20260506085350 47 26 0.0 0.0 0.07 0.00 0.31 97 1008.4
20260506084820 47 26 0.0 0.0 0.08 0.00 0.31 97 1008.3
20260506084313 47 26 0.0 0.0 0.07 0.00 0.30 97 1008.2
20260506083825 47 26 0.0 0.0 0.07 0.00 0.29 97 1008.1
20260506083316 47 26 0.0 0.0 0.08 0.00 0.29 97 1007.9
20260506082828 47 26 0.0 0.0 0.08 0.00 0.28 97 1008.0
20260506082320 47 26 0.0 0.0 0.09 0.00 0.28 97 1008.1
20260506081812 47 26 0.0 0.0 0.09 0.00 0.28 97 1007.9
20260506081329 47 26 0.0 0.0 0.09 0.00 0.27 97 1007.9
20260506080841 47 26 0.0 0.0 0.10 0.00 0.27 97 1008.0
20260506080312 47 26 0.0 0.0 0.09 0.00 0.26 97 1008.3
20260506073322 47 26 0.0 0.0 0.08 0.00 0.21 97 1008.3
20260506072818 47 26 0.0 0.0 0.08 0.00 0.20 97 1008.2
20260506072331 47 26 0.0 0.0 0.09 0.00 0.20 97 1008.2
20260506071822 47 26 0.0 0.0 0.09 0.00 0.19 97 1008.1
20260506071334 47 26 0.0 0.0 0.09 0.00 0.18 97 1008.1
20260506070826 47 26 0.0 0.0 0.08 0.00 0.17 97 1008.1
20260506070317 47 26 0.0 0.0 0.09 0.00 0.17 97 1008.1
20260506062316 47 26 0.0 0.0 0.08 0.00 0.11 97 1007.8
20260506061827 47 26 0.0 0.0 0.08 0.00 0.10 96 1008.0
20260506061319 47 26 0.0 0.0 0.08 0.00 0.09 96 1008.2
20260506060812 47 26 0.0 0.0 0.08 0.00 0.09 96 1008.3
20260506060324 47 26 0.0 0.0 0.08 0.00 0.08 96 1008.3
20260506051311 47 26 0.0 0.0 0.09 0.00 0.01 96 1008.2
20260506050824 47 26 0.0 0.0 0.10 0.00 0.01 96 1008.3
20260506050315 47 26 0.0 0.0 0.09 0.00 0.00 96 1008.2
20260506044831 47 26 0.0 0.0 0.10 0.00 0.65 96 1008.4
20260506044319 48 26 0.0 0.0 0.10 0.00 0.64 96 1008.5
20260506043811 48 26 0.0 0.0 0.10 0.00 0.63 96 1008.4
20260506043323 48 26 0.0 0.0 0.10 0.00 0.62 96 1008.4
20260506042819 48 26 0.0 0.0 0.11 0.00 0.62 96 1008.6
20260506042311 48 26 0.0 0.0 0.11 0.00 0.61 96 1008.6
20260506041823 48 26 0.0 0.0 0.11 0.00 0.60 96 1008.7
20260506041315 48 26 0.0 0.0 0.11 0.00 0.59 96 1008.7
20260506040827 48 26 0.0 0.0 0.11 0.00 0.58 96 1008.8
20260506040320 48 26 0.0 0.0 0.12 0.00 0.58 96 1008.9
20260506035812 48 26 0.0 0.0 0.12 0.00 0.57 96 1008.8
20260506035344 48 26 0.0 0.0 0.12 0.00 0.56 96 1009.0
20260506034819 49 26 0.0 0.0 0.13 0.00 0.55 96 1009.0
20260506034330 49 26 0.0 0.0 0.13 0.00 0.54 96 1009.1
20260506033822 49 26 0.0 0.0 0.13 0.00 0.53 96 1009.1
20260506033311 49 26 0.0 0.0 0.00 0.00 0.52 96 1009.3
20260506032824 49 26 0.0 0.0 0.00 0.00 0.51 96 1009.3
20260506032315 49 26 0.0 0.0 0.00 0.00 0.50 96 1009.4
20260506031828 50 26 0.0 0.0 0.00 0.00 0.49 96 1009.3
20260506031320 50 26 0.0 0.0 0.00 0.00 0.48 96 1009.3
20260506030833 50 26 0.0 0.0 0.00 0.00 0.47 96 1009.2
20260506030328 50 26 0.0 0.0 0.00 0.00 0.46 96 1009.2
20260506025820 50 26 0.0 0.0 0.00 0.00 0.45 96 1009.2
20260506025312 50 26 0.0 0.0 0.00 0.00 0.44 96 1009.3
20260506024825 50 26 0.0 0.0 0.00 0.00 0.42 96 1009.2
20260506024317 50 26 0.0 0.0 0.00 0.00 0.41 96 1009.4
20260506023851 50 26 0.0 0.0 0.00 0.00 0.40 96 1009.3
20260506014040 50 26 0.0 0.0 0.06 0.30 0.30 96 1008.5
20260506013532 50 26 0.0 0.0 0.06 0.30 0.30 96 1008.4
20260506013045 50 26 0.0 0.0 0.05 0.29 0.29 96 1008.3
20260506012536 50 26 0.0 0.0 0.04 0.28 0.28 96 1008.4
20260506012027 50 26 0.0 0.0 0.05 0.28 0.28 96 1008.5
20260506011539 50 26 0.0 0.0 0.04 0.27 0.27 96 1008.4
20260506011035 50 26 0.0 0.0 0.04 0.26 0.26 96 1008.5
20260506010526 50 26 0.0 0.0 0.04 0.26 0.26 96 1008.4
20260506010036 50 26 0.0 0.0 0.04 0.26 0.26 96 1008.4
20260506005527 50 26 0.0 0.0 0.03 0.25 0.25 95 1008.4
20260506005041 50 26 0.0 0.0 0.04 0.25 0.25 95 1008.4
20260506004531 50 26 0.0 0.0 0.03 0.24 0.24 95 1008.4
20260506004042 50 26 0.0 0.0 0.03 0.24 0.24 95 1008.3
20260506003552 50 26 0.0 0.0 0.04 0.24 0.24 96 1008.3
20260506003043 50 26 0.0 0.0 0.04 0.24 0.24 95 1008.4
20260506002535 50 26 0.0 3.0 0.04 0.24 0.24 95 1008.4
20260506002027 50 26 0.0 3.0 0.03 0.23 0.23 95 1008.2
20260506001542 50 26 0.0 0.0 0.04 0.23 0.23 95 1008.1
20260506001033 50 26 0.0 0.0 0.03 0.22 0.22 95 1007.9
20260506000546 50 26 0.0 0.0 0.04 0.22 0.22 95 1007.9
20260506000038 51 26 0.0 0.0 0.04 0.22 0.22 95 1007.8
20260505235530 51 26 0.0 3.0 0.04 0.22 0.22 95 1007.9
20260505235039 51 26 0.0 4.0 0.04 0.22 0.22 95 1007.9
20260505234551 51 27 0.0 0.0 0.04 0.21 0.21 95 1007.8
20260505234042 51 26 0.0 0.0 0.04 0.21 0.21 95 1007.9
20260505233534 51 26 0.0 3.0 0.04 0.20 0.20 95 1007.9
20260505233030 51 26 1.0 3.0 0.04 0.20 0.20 95 1007.9
20260505232543 51 26 0.0 0.0 0.04 0.20 0.20 95 1007.9
20260505232034 51 26 0.0 0.0 0.04 0.20 0.20 95 1008.0
20260505231606 51 26 0.0 0.0 0.03 0.19 0.19 95 1007.9
20260505231037 51 26 0.0 4.0 0.04 0.19 0.19 95 1008.0
20260505230529 51 26 0.0 4.0 0.03 0.18 0.18 95 1008.1
20260505230041 51 27 0.0 0.0 0.03 0.18 0.18 94 1008.4
20260505225533 51 27 0.0 0.0 0.04 0.18 0.18 94 1008.5
20260505225042 51 27 0.0 4.0 0.04 0.18 0.18 94 1008.5
20260505224539 51 27 1.0 4.0 0.03 0.17 0.17 94 1008.5
20260505224031 51 27 0.0 0.0 0.03 0.17 0.17 94 1008.5
20260505223543 52 27 0.0 2.0 0.03 0.16 0.16 94 1008.5
20260505223032 52 27 0.0 4.0 0.03 0.16 0.16 94 1008.5
20260505222544 52 27 0.0 4.0 0.03 0.16 0.16 94 1008.3
20260505222056 52 28 1.0 5.0 0.04 0.16 0.16 94 1008.0
20260505221527 52 28 0.0 0.0 0.04 0.16 0.16 94 1008.1
20260505221039 52 28 0.0 3.0 0.03 0.15 0.15 94 1008.0
20260505220532 52 28 0.0 3.0 0.03 0.15 0.15 94 1008.1
20260505220025 52 34 0.0 4.0 0.04 0.15 0.15 93 1008.1
20260505215539 53 34 1.0 4.0 0.03 0.14 0.14 93 1007.9
20260505215032 53 34 0.0 0.0 0.04 0.14 0.14 93 1007.9
20260505214543 54 34 0.0 5.0 0.04 0.14 0.14 93 1007.5
20260505214035 54 35 0.0 3.0 0.04 0.14 0.14 94 1007.5
20260505213547 54 35 1.0 3.0 0.04 0.13 0.13 94 1007.4
20260505213039 54 34 0.0 0.0 0.05 0.13 0.13 93 1007.8
20260505212531 55 34 0.0 0.0 0.05 0.13 0.13 93 1007.5
20260505212103 55 34 0.0 0.0 0.04 0.12 0.12 93 1007.4
20260505211538 55 34 0.0 5.0 0.04 0.12 0.12 93 1007.6
20260505211030 55 34 2.0 5.0 0.05 0.12 0.12 93 1007.5
20260505210543 55 37 0.0 0.0 0.05 0.12 0.12 92 1007.5
20260505210036 56 37 0.0 1.0 0.05 0.11 0.11 92 1007.5
20260505205528 56 37 0.0 5.0 0.05 0.11 0.11 92 1007.5
20260505205100 57 37 0.0 9.0 0.04 0.10 0.10 92 1007.4
20260505204531 58 348 1.0 9.0 0.05 0.10 0.10 93 1007.5
20260505204042 58 265 0.0 5.0 0.06 0.10 0.10 93 1007.3
20260505203535 58 265 0.0 7.0 0.05 0.09 0.09 93 1007.4
20260505203031 58 266 3.0 7.0 0.05 0.09 0.09 93 1007.4
20260505202543 58 250 0.0 2.0 0.05 0.08 0.08 93 1007.5
20260505202055 58 250 0.0 1.0 0.05 0.08 0.08 92 1007.4
20260505201526 58 250 0.0 3.0 0.06 0.08 0.08 92 1007.4
20260505201039 58 250 0.0 3.0 0.05 0.07 0.07 92 1007.4
20260505200531 58 250 0.0 4.0 0.05 0.07 0.07 92 1007.5
20260505200043 58 250 1.0 4.0 0.05 0.06 0.06 91 1007.4
20260505195554 59 249 0.0 4.0 0.05 0.06 0.06 91 1007.5
20260505195025 59 250 0.0 5.0 0.06 0.06 0.06 91 1007.5
20260505194535 59 250 0.0 5.0 0.05 0.05 0.05 90 1007.6
20260505194031 59 250 0.0 3.0 0.04 0.04 0.04 89 1007.7
20260505193543 59 250 1.0 7.0 0.04 0.04 0.04 89 1007.6
20260505193035 59 250 2.0 7.0 0.04 0.04 0.04 88 1007.7
20260505192526 60 264 0.0 3.0 0.03 0.03 0.03 88 1007.8
20260505192040 60 265 1.0 5.0 0.03 0.03 0.03 87 1007.8
20260505191530 60 265 1.0 6.0 0.02 0.02 0.02 86 1007.8
20260505191101 60 263 2.0 6.0 0.02 0.02 0.02 85 1007.8
20260505190530 60 242 3.0 5.0 0.02 0.02 0.02 85 1007.7
20260505190042 60 242 0.0 7.0 0.01 0.01 0.01 83 1007.7
20260505185535 61 242 0.0 15.0 0.01 0.01 0.01 82 1007.8
20260505185029 61 240 4.0 15.0 0.00 0.00 0.00 81 1007.7
20260505184538 61 218 4.0 10.0 0.00 0.00 0.00 80 1007.7
20260505184030 62 248 6.0 11.0 0.00 0.00 0.00 79 1007.8
20260505183541 62 209 5.0 11.0 0.00 0.00 0.00 78 1007.7
20260505183032 63 217 1.0 12.0 0.00 0.00 0.00 77 1007.7
20260505182545 63 211 4.0 10.0 0.00 0.00 0.00 77 1007.7
20260505182057 63 255 5.0 14.0 0.00 0.00 0.00 75 1007.6
20260505181526 63 200 5.0 14.0 0.00 0.00 0.00 75 1007.5
20260505181036 64 274 8.0 13.0 0.00 0.00 0.00 74 1007.5
20260505180527 64 265 4.0 13.0 0.00 0.00 0.00 74 1007.4
20260505180039 64 261 4.0 13.0 0.00 0.00 0.00 73 1007.5
20260505175531 64 242 5.0 18.0 0.00 0.00 0.00 73 1007.4
20260505175026 65 260 11.0 18.0 0.00 0.00 0.00 73 1007.4
20260505174538 65 254 4.0 11.0 0.00 0.00 0.00 73 1007.3
20260505174032 65 259 5.0 16.0 0.00 0.00 0.00 73 1007.3
20260505173604 64 221 7.0 16.0 0.00 0.00 0.00 72 1007.3
20260505173035 64 219 7.0 15.0 0.00 0.00 0.00 73 1007.3
20260505172547 64 234 7.0 15.0 0.00 0.00 0.00 73 1007.3
20260505172057 64 231 2.0 13.0 0.00 0.00 0.00 73 1007.3
20260505171528 64 217 7.0 17.0 0.00 0.00 0.00 73 1007.3
20260505171039 64 238 9.0 23.0 0.00 0.00 0.00 73 1007.3
20260505170550 64 282 10.0 23.0 0.00 0.00 0.00 72 1007.3
20260505170100 64 240 8.0 17.0 0.00 0.00 0.00 71 1007.4
20260505165531 65 283 11.0 17.0 0.00 0.00 0.00 71 1007.3
20260505165026 65 254 8.0 17.0 0.00 0.00 0.00 71 1007.3
20260505164539 65 286 9.0 17.0 0.00 0.00 0.00 71 1007.2
20260505164031 65 243 5.0 18.0 0.00 0.00 0.00 70 1007.2
20260505163543 65 247 7.0 20.0 0.00 0.00 0.00 70 1007.2
20260505163036 65 277 5.0 20.0 0.00 0.00 0.00 69 1007.1
20260505162528 65 236 8.0 18.0 0.00 0.00 0.00 69 1007.2
20260505162040 66 229 8.0 13.0 0.00 0.00 0.00 68 1007.2
20260505161532 66 234 6.0 15.0 0.00 0.00 0.00 68 1007.0
20260505161048 66 229 10.0 19.0 0.00 0.00 0.00 67 1007.1
20260505160601 66 223 12.0 19.0 0.00 0.00 0.00 67 1007.2
20260505153043 68 267 8.0 15.0 0.00 0.00 0.00 65 1006.5
20260505152535 68 184 4.0 17.0 0.00 0.00 0.00 65 1006.4
20260505152027 68 261 9.0 17.0 0.00 0.00 0.00 65 1006.5
20260505151543 68 312 4.0 20.0 0.00 0.00 0.00 64 1006.1
20260505151035 68 202 6.0 16.0 0.00 0.00 0.00 65 1006.0
20260505150547 67 229 10.0 16.0 0.00 0.00 0.00 65 1005.7
20260505140555 65 259 8.0 30.0 0.00 0.00 0.00 68 1006.2
20260505125038 62 211 4.0 13.0 0.00 0.00 0.00 74 1005.7
20260505124531 62 252 5.0 11.0 0.00 0.00 0.00 73 1005.9
20260505124103 62 190 3.0 16.0 0.00 0.00 0.00 73 1005.7
20260505123534 62 231 6.0 16.0 0.00 0.00 0.00 73 1005.8
20260505123026 62 216 3.0 14.0 0.00 0.00 0.00 73 1005.9
20260505122538 62 233 4.0 15.0 0.00 0.00 0.00 73 1005.7
20260505122035 62 209 4.0 15.0 0.00 0.00 0.00 72 1005.5
20260505121544 62 253 3.0 17.0 0.00 0.00 0.00 72 1005.6
20260505121056 62 214 11.0 17.0 0.00 0.00 0.00 72 1005.3
20260505120545 62 188 6.0 14.0 0.00 0.00 0.00 72 1005.2
20260505120037 62 215 3.0 15.0 0.00 0.00 0.00 72 1005.1
20260505115529 62 201 8.0 15.0 0.00 0.00 0.00 72 1004.7
20260505115042 62 203 8.0 14.0 0.00 0.00 0.00 72 1004.6
20260505114534 62 232 6.0 14.0 0.00 0.00 0.00 72 1004.4
20260505114030 62 221 5.0 15.0 0.00 0.00 0.00 72 1004.2
20260505113543 62 219 5.0 15.0 0.00 0.00 0.00 71 1004.1
20260505113055 63 220 7.0 17.0 0.00 0.00 0.00 71 1004.1